Norwich, United Kingdom

8:08 AM BST on September 20, 2017 (GMT +0100)
Norwich

Weather History for EGSH - May, 2013

Change the Weather History Date:

Wednesday, May 8, 2013

  Actual Average Record
Temperature  
Mean Temperature 54 °F -  
Max Temperature 66 °F 61 °F 73 °F (2011)
Min Temperature 42 °F 47 °F 39 °F (1997)
Degree Days  
Heating Degree Days 11    
Growing Degree Days 4 (Base 50)    
Moisture  
Dew Point 48 °F    
Average Humidity 77    
Maximum Humidity 94    
Minimum Humidity 52    
Precipitation  
Precipitation 0.00 in - - ()
Sea Level Pressure  
Sea Level Pressure 29.73 in    
Wind  
Wind Speed 6 mph ()    
Max Wind Speed 17 mph    
Max Gust Speed 25 mph    
Visibility 4.6 miles    
Events Rain    
Averages and records for this station are not official NWS values.
T = Trace of Precipitation, MM = Missing Value Source: Averaged Metar Reports

Daily Weather History Graph

Daily Weather History Graph

Search for Another Location

Airport or City:

Trip Planner

Search our weather history database for the weather conditions in past years. The results will help you decide how hot, cold, wet, or windy it might be!

Date:

Astronomy

May. 08, 2013 Rise Set
Actual Time 5:09 AM BST 8:33 PM BST
Civil Twilight 4:28 AM BST 9:15 PM BST
Nautical Twilight 3:32 AM BST 10:11 PM BST
Astronomical Twilight 2:14 AM BST 11:32 PM BST
Moon 4:21 AM BST (5/8) 7:08 PM BST (5/8)
Length of Visible Light 16h 46m
Length of Day
15h 24m
Waning Crescent, 2% of the Moon is Illuminated
May 8
Waning Crescent
May 10
New
May 18
First Quarter
May 25
Full
May 31
Last Quarter

Hourly Weather History & Observations

Time (BST) Temp. Dew Point Humidity Pressure Visibility Wind Dir Wind Speed Gust Speed Precip Events Conditions
12:20 AM 46.4 °F 44.6 °F 93% 29.92 in 3.1 mi Calm Calm - N/A   Haze
12:50 AM 46.4 °F 42.8 °F 87% 29.89 in - Calm Calm - N/A   Haze
1:20 AM 46.4 °F 42.8 °F 87% 29.89 in - NE 2.3 mph - N/A   Haze
1:50 AM 46.4 °F 42.8 °F 87% 29.86 in - Calm Calm - N/A   Haze
2:20 AM 46.4 °F 42.8 °F 87% 29.86 in 2.5 mi Calm Calm - N/A   Haze
2:50 AM 46.4 °F 42.8 °F 87% 29.83 in 3.1 mi East 1.2 mph - N/A   Haze
3:20 AM 44.6 °F 41.0 °F 87% 29.83 in - NE 2.3 mph - N/A   Haze
3:50 AM 44.6 °F 42.8 °F 93% 29.80 in - ENE 2.3 mph - N/A   Haze
4:20 AM 44.6 °F 42.8 °F 93% 29.80 in 1.7 mi Calm Calm - N/A   Haze
4:50 AM 44.6 °F 42.8 °F 93% 29.80 in 1.7 mi Variable 1.2 mph - N/A   Haze
5:20 AM 44.6 °F 42.8 °F 93% 29.77 in - NE 2.3 mph - N/A   Haze
5:50 AM 42.8 °F 41.0 °F 93% 29.77 in 1.3 mi Variable 1.2 mph - N/A   Haze
6:20 AM 46.4 °F 44.6 °F 93% 29.77 in 1.6 mi Variable 2.3 mph - N/A   Haze
6:50 AM 50.0 °F 48.2 °F 94% 29.74 in 1.6 mi Variable 3.5 mph - N/A   Haze
7:20 AM 51.8 °F 50.0 °F 94% 29.74 in 1.9 mi SE 8.1 mph - N/A   Haze
7:50 AM 53.6 °F 51.8 °F 94% 29.74 in 1.9 mi SE 6.9 mph - N/A   Haze
8:20 AM 53.6 °F 51.8 °F 94% 29.74 in 2.5 mi SE 5.8 mph - N/A   Haze
8:50 AM 55.4 °F 51.8 °F 88% 29.71 in 2.8 mi SSE 8.1 mph - N/A   Haze
9:20 AM 57.2 °F 53.6 °F 88% 29.71 in 3.1 mi SSE 9.2 mph - N/A   Haze
9:50 AM 59.0 °F 51.8 °F 77% 29.71 in 3.1 mi SSE 10.4 mph - N/A   Haze
10:20 AM 57.2 °F 50.0 °F 77% 29.71 in 3.7 mi South 10.4 mph - N/A   Scattered Clouds
10:50 AM 57.2 °F 51.8 °F 82% 29.71 in 3.7 mi South 10.4 mph - N/A   Scattered Clouds
11:20 AM 59.0 °F 51.8 °F 77% 29.68 in 3.7 mi South 11.5 mph - N/A   Partly Cloudy
11:50 AM 60.8 °F 53.6 °F 77% 29.68 in 4.3 mi South 11.5 mph - N/A   Mostly Cloudy
12:20 PM 62.6 °F 53.6 °F 72% 29.68 in 5.0 mi South 13.8 mph - N/A   Mostly Cloudy
12:50 PM 62.6 °F 53.6 °F 72% 29.68 in 6.2 mi SSW 15.0 mph - N/A   Mostly Cloudy
1:20 PM 62.6 °F 53.6 °F 72% 29.68 in 6.2 mi SSW 15.0 mph - N/A   Mostly Cloudy
1:50 PM 62.6 °F 53.6 °F 72% 29.65 in 6.2 mi SSW 16.1 mph - N/A Rain Light Rain Showers
2:20 PM 64.4 °F 51.8 °F 64% 29.65 in 6.2 mi SSW 16.1 mph - N/A Rain Light Rain Showers
2:50 PM 64.4 °F 53.6 °F 68% 29.65 in 6.2 mi SSW 13.8 mph 25.3 mph N/A   Scattered Clouds
3:20 PM 64.4 °F 51.8 °F 64% 29.65 in 6.2 mi SW 15.0 mph - N/A   Scattered Clouds
3:50 PM 66.2 °F 48.2 °F 52% 29.65 in 6.2 mi SW 16.1 mph - N/A   Scattered Clouds
4:20 PM 62.6 °F 48.2 °F 59% 29.65 in 6.2 mi SW 17.3 mph - N/A   Scattered Clouds
4:50 PM 62.6 °F 50.0 °F 63% 29.65 in 6.2 mi SW 13.8 mph - N/A   Mostly Cloudy
5:20 PM 62.6 °F 48.2 °F 59% 29.65 in 6.2 mi SW 16.1 mph - N/A   Mostly Cloudy
5:50 PM 62.6 °F 50.0 °F 63% 29.65 in 6.2 mi SW 15.0 mph - N/A   Scattered Clouds
6:20 PM 60.8 °F 48.2 °F 63% 29.65 in 6.2 mi SW 13.8 mph - N/A   Scattered Clouds
6:50 PM 60.8 °F 48.2 °F 63% 29.65 in 6.2 mi SW 12.7 mph - N/A   Scattered Clouds
7:20 PM 60.8 °F 46.4 °F 59% 29.65 in 6.2 mi SW 12.7 mph - N/A   Partly Cloudy
7:50 PM 60.8 °F 46.4 °F 59% 29.68 in 6.2 mi SW 12.7 mph - N/A   Partly Cloudy
8:20 PM 59.0 °F 46.4 °F 63% 29.68 in 6.2 mi SSW 6.9 mph - N/A   Partly Cloudy
8:50 PM 59.0 °F 48.2 °F 67% 29.68 in 6.2 mi South 9.2 mph - N/A   Scattered Clouds
9:20 PM 59.0 °F 48.2 °F 67% 29.68 in 6.2 mi SSW 11.5 mph - N/A   Scattered Clouds
10:20 PM 57.2 °F 48.2 °F 72% 29.71 in 6.2 mi SW 13.8 mph - N/A   Partly Cloudy
10:50 PM 57.2 °F 48.2 °F 72% 29.71 in 6.2 mi SSW 11.5 mph - N/A   Partly Cloudy
11:20 PM 57.2 °F 48.2 °F 72% 29.74 in 6.2 mi SW 11.5 mph - N/A   Scattered Clouds
11:50 PM 53.6 °F 42.8 °F 67% 29.74 in 6.2 mi WSW 16.1 mph - N/A   Partly Cloudy